Salem, OR

5:28 PM PDT on June 25, 2017 (GMT -0700)
McNary

Weather History for KSLE - February, 2011

Change the Weather History Date:

Saturday, February 5, 2011

  Actual Average Record
Temperature  
Mean Temperature 51 °F 42 °F  
Max Temperature 54 °F 50 °F 62 °F (2010)
Min Temperature 47 °F 35 °F -1 °F (1989)
Degree Days  
Heating Degree Days 14 23  
Month to date heating degree days 110 115  
Since 1 July heating degree days 2503 2742  
Cooling Degree Days 0 0  
Month to date cooling degree days 0 0  
Year to date cooling degree days 0 0  
Moisture  
Dew Point 46 °F    
Average Humidity 85    
Maximum Humidity 93    
Minimum Humidity 77    
Precipitation  
Precipitation 0.04 in 0.17 in 2.17 in (1996)
Month to date precipitation 0.06 0.84  
Year to date precipitation 3.31 6.80  
Snow  
Snow 0.00 in - - ()
Month to date snowfall 0.0  
Snow Depth 0.00 in    
Sea Level Pressure  
Sea Level Pressure 30.47 in    
Wind  
Wind Speed 5 mph (South)    
Max Wind Speed 10 mph    
Max Gust Speed -    
Visibility 10 miles    
Events Rain    
T = Trace of Precipitation, MM = Missing Value Source: NWS Daily Summary

Daily Weather History Graph

Daily Weather History Graph

Search for Another Location

Airport or City:

Trip Planner

Search our weather history database for the weather conditions in past years. The results will help you decide how hot, cold, wet, or windy it might be!

Date:

Astronomy

Feb. 05, 2011 Rise Set
Actual Time 7:26 AM PST 5:25 PM PST
Civil Twilight 6:56 AM PST 5:56 PM PST
Nautical Twilight 6:21 AM PST 6:31 PM PST
Astronomical Twilight 5:46 AM PST 7:05 PM PST
Moon 8:12 AM PST (2/5) 8:30 PM PST (2/5)
Length of Visible Light 11h 00m
Length of Day
9h 58m
Waxing Crescent, 7% of the Moon is Illuminated
Feb 5
Waxing Crescent
Feb 10
First Quarter
Feb 18
Full
Feb 24
Last Quarter
Mar 4
New

Hourly Weather History & Observations

Time (PST) Temp. Dew Point Humidity Pressure Visibility Wind Dir Wind Speed Gust Speed Precip Events Conditions
12:16 AM 48.2 °F 46.4 °F 93% 30.46 in 10.0 mi SE 4.6 mph - N/A   Overcast
12:56 AM 50.0 °F 46.0 °F 86% 30.46 in 10.0 mi South 4.6 mph - N/A   Overcast
1:56 AM 48.9 °F 46.0 °F 90% 30.47 in 10.0 mi Calm Calm - N/A   Overcast
2:33 AM 48.2 °F 46.4 °F 93% 30.45 in 10.0 mi SE 8.1 mph - N/A   Overcast
2:43 AM 48.2 °F 46.4 °F 93% 30.47 in 10.0 mi SSE 3.5 mph - N/A   Overcast
2:56 AM 48.9 °F 46.0 °F 90% 30.48 in 10.0 mi Calm Calm - N/A   Overcast
3:08 AM 48.2 °F 46.4 °F 93% 30.48 in 10.0 mi Calm Calm - N/A   Overcast
3:48 AM 48.2 °F 46.4 °F 93% 30.47 in 10.0 mi Calm Calm - N/A   Overcast
3:56 AM 48.0 °F 45.0 °F 89% 30.46 in 10.0 mi SE 3.5 mph - N/A   Overcast
4:56 AM 48.0 °F 46.0 °F 93% 30.46 in 10.0 mi SE 4.6 mph - N/A   Overcast
5:13 AM 48.2 °F 46.4 °F 93% 30.46 in 10.0 mi South 3.5 mph - N/A   Overcast
5:32 AM 48.2 °F 46.4 °F 93% 30.46 in 10.0 mi South 3.5 mph - N/A   Overcast
5:56 AM 48.0 °F 45.0 °F 89% 30.47 in 10.0 mi ESE 3.5 mph - 0.00 in Rain Light Rain
6:56 AM 46.9 °F 46.0 °F 97% 30.49 in 10.0 mi NNW 3.5 mph - 0.01 in   Overcast
7:07 AM 48.2 °F 46.4 °F 93% 30.48 in 10.0 mi Calm Calm - N/A   Overcast
7:32 AM 46.4 °F 46.4 °F 100% 30.49 in 10.0 mi Calm Calm - 0.00 in Rain Light Rain
7:56 AM 48.0 °F 46.0 °F 93% 30.50 in 3.0 mi Calm Calm - 0.01 in Rain Light Rain
8:29 AM 48.2 °F 46.4 °F 93% 30.50 in 10.0 mi Calm Calm - 0.01 in Rain Light Rain
8:56 AM 48.9 °F 46.9 °F 93% 30.50 in 8.0 mi SSW 3.5 mph - 0.02 in Rain Light Rain
9:03 AM 48.2 °F 46.4 °F 93% 30.49 in 9.0 mi South 3.5 mph - 0.00 in Rain Light Rain
9:56 AM 50.0 °F 46.0 °F 86% 30.50 in 10.0 mi Calm Calm - 0.00 in   Overcast
10:16 AM 50.0 °F 46.4 °F 87% 30.49 in 10.0 mi SSW 3.5 mph - N/A   Overcast
11:36 AM 51.8 °F 48.2 °F 88% 30.48 in 10.0 mi South 3.5 mph - N/A   Overcast
11:56 AM 52.0 °F 46.9 °F 83% 30.49 in 10.0 mi SSW 6.9 mph - N/A   Overcast
1:56 PM 53.1 °F 46.9 °F 80% 30.46 in 10.0 mi South 4.6 mph - N/A   Overcast
2:12 PM 53.6 °F 46.4 °F 77% 30.46 in 10.0 mi South 6.9 mph - N/A   Overcast
2:56 PM 54.0 °F 46.0 °F 75% 30.45 in 10.0 mi South 4.6 mph - N/A   Overcast
3:56 PM 54.0 °F 46.9 °F 77% 30.45 in 10.0 mi South 4.6 mph - N/A   Overcast
4:56 PM 53.1 °F 46.0 °F 77% 30.44 in 10.0 mi South 8.1 mph - N/A   Overcast
5:56 PM 53.1 °F 46.0 °F 77% 30.45 in 10.0 mi South 8.1 mph - N/A   Overcast
6:44 PM 51.8 °F 46.4 °F 82% 30.43 in 10.0 mi South 8.1 mph - N/A   Overcast
6:56 PM 52.0 °F 48.0 °F 86% 30.44 in 10.0 mi South 9.2 mph - N/A   Overcast
7:56 PM 52.0 °F 48.0 °F 86% 30.44 in 10.0 mi South 5.8 mph - N/A   Overcast
9:56 PM 51.1 °F 48.0 °F 89% 30.45 in 10.0 mi South 5.8 mph - N/A   Overcast
10:56 PM 51.1 °F 46.9 °F 86% 30.45 in 10.0 mi South 6.9 mph - N/A   Overcast
11:56 PM 51.1 °F 46.9 °F 86% 30.45 in 10.0 mi SSW 5.8 mph - N/A   Overcast